sat.trackr.live / text

‹ back to catalog

STARLINK-37853

NORAD 69498 · 2026-131W

PAYLOAD ACTIVE UNKNOWN

§ Identity

Operator
Country
US
Launch date
2026-06-11
Launch site
AFWTR
Launch vehicle
Mass (kg)
RCS (m²)

Purposes: comms

External: N2YO · Heavens-Above · Gunter

§ Orbital elements

Epoch: 2026-09-20T01:24:32.246784Z

Period
93.91 min
Inclination
97.2871°
Eccentricity
0.0000425
Mean motion
15.33429522 rev/d
Perigee alt
465.3 km
Apogee alt
465.9 km
Semi-major
6,843.7 km
B*
4.1561e-4
RAAN
286.8861°
Arg perigee
126.9415°
Mean anomaly
233.1866°
Rev number
1,576

§ Raw data

STARLINK-378531 69498U 26131W   26263.05870656  .00013359  00000+0  41561-3 0  99952 69498  97.2871 286.8861 0000425 126.9415 233.1866 15.33429522 15764

JSON: /api/v1/satellites/69498 · /tle

For live sub-satellite position, see the globe view (requires WebGL).

§ Visibility from observer

Set your observer location to see the next 7 days of passes ≥ 10°. The values pass through the URL so the page stays shareable.

No JS? Fill the form by hand. The geolocation button needs JavaScript.